Wind_Speed
29 28 27 27 27 27 28 28 28 28 28 27 27 28 28 28 28 28 29 30 30 31 32 32 32 32 33 33 34 36 37 38 39 40 40 41 41 40 40 39 38 37 36 35 35 34 34 34 35 35 35 34 33 32 31 31 31 31 31 31 30 30 29 28 27 25 24 23 22
29 29 28 27 27 27 27 27 27 27 28 28 28 28 28 29 29 29 29 30 31 32 32 32 32 32 33 33 34 35 36 37 39 40 40 41 41 41 40 40 39 38 37 36 36 35 35 35 36 36 36 35 35 34 33 32 31 31 31 31 30 30 29 28 27 26 25 23 22
30 29 28 27 26 26 26 27 27 27 28 28 28 29 29 29 29 29 30 31 31 32 32 32 32 32 33 33 34 34 35 37 38 39 40 41 41 41 41 40 39 39 38 37 36 36 36 36 36 36 37 37 36 35 34 33 32 31 31 31 30 30 29 29 28 26 25 24 23
29 29 28 27 27 27 27 27 28 28 28 28 29 29 29 29 29 29 30 30 31 31 32 32 32 32 33 33 34 34 35 36 37 38 39 40 40 40 39 38 37 37 36 36 36 36 36 36 36 36 37 37 37 36 35 34 33 32 31 30 30 29 29 28 28 27 25 24 23
29 29 28 28 28 28 28 28 28 28 28 28 28 28 28 28 29 29 29 30 30 31 32 32 32 32 32 33 33 34 34 35 36 36 38 39 38 37 36 36 36 36 35 35 35 35 35 35 35 36 36 37 37 36 35 34 33 32 31 30 30 29 29 28 27 26 26 25 24
28 28 28 28 28 28 28 28 28 28 28 28 28 28 28 28 29 29 30 30 31 32 32 32 32 32 32 32 33 33 34 34 35 36 36 37 36 35 34 34 34 34 34 34 34 33 33 33 34 35 36 36 35 35 34 34 33 32 31 30 30 29 28 28 27 26 26 25 25
27 28 28 28 28 28 28 28 27 27 27 27 27 28 28 29 29 30 31 32 32 32 31 31 31 31 31 32 33 33 34 34 35 35 35 35 35 34 34 33 33 33 33 32 32 32 33 33 34 34 35 35 34 34 34 33 32 31 31 30 30 29 28 27 27 26 26 26 25
26 27 27 27 28 28 27 27 27 26 26 27 28 28 29 30 30 31 31 31 31 31 31 31 31 31 31 32 32 33 33 34 34 34 34 34 33 33 33 32 32 31 31 31 32 33 34 34 34 34 34 34 33 33 33 32 32 31 31 31 30 29 28 27 27 26 26 26 26
25 25 26 26 27 27 27 27 27 26 27 27 28 29 29 29 30 30 30 30 30 30 30 30 31 31 31 31 31 31 32 33 33 33 33 32 32 31 31 30 30 31 31 32 32 33 34 34 35 35 34 33 32 32 32 32 31 31 31 31 30 29 28 28 27 26 26 26 26
23 24 24 24 25 25 26 26 26 27 27 28 28 28 28 29 29 29 29 30 30 30 30 30 30 30 30 30 30 30 31 31 32 32 31 30 30 29 29 30 31 31 32 32 32 32 32 33 34 34 33 33 32 31 31 32 31 31 31 30 30 29 28 28 27 26 26 26 27
21 21 22 22 23 23 24 25 25 26 27 27 27 27 28 28 28 28 28 28 28 29 29 29 28 28 28 28 29 29 30 30 30 30 29 29 29 30 30 30 31 31 31 30 30 30 30 31 32 32 32 32 32 32 32 32 32 31 31 30 29 29 28 28 27 26 26 27 27
19 19 20 20 21 21 22 23 24 25 26 26 27 27 27 27 27 27 27 27 27 27 27 27 27 27 27 27 28 28 28 28 28 29 29 29 30 30 29 29 29 29 29 28 28 28 29 29 30 30 31 31 32 32 32 32 32 31 30 29 29 28 28 27 27 27 27 27 27
17 17 18 18 19 20 21 22 23 24 25 25 26 26 26 26 26 26 26 26 26 26 26 25 25 26 26 26 27 27 27 27 27 28 28 28 28 28 27 27 27 27 27 27 27 27 27 28 28 29 29 30 31 31 31 31 31 30 29 29 28 28 28 27 27 26 26 27 27
15 15 15 16 17 18 19 20 21 22 23 24 24 25 25 25 24 24 24 24 24 24 24 24 24 24 25 25 25 25 26 26 26 26 26 26 26 25 25 25 25 25 25 26 26 26 26 27 27 27 28 28 29 29 29 29 29 29 28 28 28 28 27 27 26 26 26 27 28
11 12 13 13 14 15 17 18 19 21 22 22 23 23 23 23 23 23 23 23 23 23 23 23 23 23 23 23 23 24 24 24 24 24 24 24 24 24 24 24 24 24 24 24 25 25 26 26 26 26 26 26 26 27 27 27 28 28 28 28 28 28 27 27 26 26 26 27 27
9 9 10 11 12 13 14 15 17 18 19 20 20 21 21 21 21 21 21 21 21 21 21 21 21 21 21 21 22 22 22 22 22 22 22 22 23 23 23 23 23 23 23 23 24 24 24 25 25 24 24 25 25 25 26 26 26 27 27 27 27 27 26 26 25 26 26 27 27
8 8 9 9 10 11 11 12 13 14 15 15 16 17 17 18 18 18 18 18 18 19 19 19 19 19 19 20 20 20 20 21 21 21 21 21 21 21 22 22 21 21 21 22 22 22 22 22 22 22 23 23 24 24 24 25 25 25 25 26 26 25 25 25 25 25 26 26 27
7 8 8 8 8 8 8 8 9 9 9 10 10 11 11 12 13 14 14 15 15 15 16 16 16 17 17 18 18 18 18 19 19 19 19 19 19 19 20 20 20 20 20 20 20 20 20 20 21 21 21 22 22 22 23 23 24 24 24 24 24 24 24 25 25 25 26 27 27
6 6 7 6 6 6 6 5 5 5 5 6 6 7 8 8 9 10 11 12 12 13 13 14 14 15 15 15 16 16 16 16 17 17 17 17 17 17 18 18 18 18 18 18 18 19 19 19 19 20 20 20 21 21 21 22 22 22 23 23 24 24 24 25 25 26 26 27 28
5 5 5 5 4 4 4 4 4 4 4 4 4 5 6 7 7 8 9 10 10 11 11 12 12 12 13 13 13 14 14 14 15 15 15 15 15 15 16 16 16 17 17 17 17 17 17 18 18 18 18 19 19 19 20 20 21 21 22 23 23 24 25 25 26 26 27 28 28
3 3 3 4 3 3 3 3 3 3 2 3 3 4 5 6 6 7 8 8 9 9 9 10 10 10 11 11 12 12 12 13 13 13 13 13 14 14 14 14 15 15 15 15 15 15 15 16 16 17 17 17 18 18 18 19 20 21 22 22 23 24 25 25 26 27 28 28 29
3 3 3 3 3 3 3 2 2 2 1 2 3 3 4 5 6 6 7 7 7 8 8 8 8 9 9 10 10 10 11 11 11 11 11 12 12 12 12 13 13 13 13 14 14 14 14 15 15 16 16 17 17 17 18 19 20 21 21 22 23 24 25 26 26 27 28 28 29
3 3 3 3 3 2 2 2 1 1 1 2 2 3 4 4 5 5 5 6 6 6 7 7 8 8 8 9 9 9 9 9 9 9 10 10 11 11 11 12 12 12 13 13 13 13 14 14 14 15 15 16 17 17 18 18 19 20 21 22 23 24 24 25 26 26 27 27 28
2 2 2 2 2 2 2 1 1 1 1 2 2 3 3 3 4 4 4 5 5 5 6 6 7 7 7 7 8 8 8 8 8 8 9 9 10 10 11 11 12 12 12 12 13 13 13 14 14 15 15 15 16 16 17 18 19 19 20 22 22 23 24 25 25 25 26 26 27
1 1 2 2 2 2 1 1 1 1 1 1 1 2 2 3 3 3 4 4 5 5 5 6 6 6 6 6 6 6 6 7 7 7 8 8 9 10 10 11 11 12 12 12 12 13 13 14 14 15 15 15 16 16 17 18 18 19 20 21 22 23 24 25 25 25 26 26 26
0 1 1 1 2 2 2 2 2 1 1 1 2 2 2 3 3 4 4 5 5 5 5 5 5 5 5 5 5 5 6 6 7 7 8 9 9 9 10 10 11 11 11 12 12 12 13 13 13 13 13 14 15 16 17 18 18 19 20 21 22 23 24 25 25 26 26 26 26
2 2 2 3 3 3 4 3 3 3 3 3 3 3 4 4 5 5 5 5 5 5 5 5 5 5 5 5 6 6 6 7 7 8 8 9 9 9 10 10 10 10 10 11 11 12 12 12 12 11 11 13 14 15 16 17 18 18 19 20 21 22 23 24 24 25 25 25 25
4 4 4 4 5 5 5 5 5 5 5 5 5 5 5 6 6 6 6 6 6 6 6 6 6 6 6 6 7 7 7 7 8 8 8 9 9 9 9 9 9 9 9 9 10 10 11 11 11 11 11 12 13 14 15 16 17 18 18 19 20 21 21 22 23 24 24 25 25
6 6 6 6 6 6 7 7 7 7 6 6 6 6 7 7 7 7 7 7 7 7 7 7 7 7 7 8 8 8 8 8 8 8 8 8 8 8 8 8 8 8 8 9 9 10 10 10 11 11 11 12 12 13 14 15 16 17 18 18 19 20 21 21 22 23 23 24 24
8 7 7 8 8 8 8 8 8 8 8 8 8 8 8 8 9 9 9 9 9 9 9 9 8 8 8 8 8 8 8 8 8 8 7 7 7 8 8 8 8 8 9 9 9 10 10 10 11 11 11 12 13 13 14 15 15 16 17 18 19 19 20 21 21 22 22 23 23
9 9 9 9 9 9 9 9 9 9 9 9 9 10 10 10 10 10 10 10 10 9 9 9 9 9 9 9 8 8 8 8 7 7 7 7 7 8 8 8 9 9 9 10 10 10 11 11 11 12 12 13 13 13 14 14 15 16 16 17 18 18 19 19 19 20 20 21 21
10 10 10 11 11 11 11 11 11 11 11 11 11 11 11 11 11 11 10 10 10 10 9 9 9 9 9 8 8 7 7 6 6 6 7 7 8 8 9 9 9 10 10 10 11 11 11 12 12 13 13 13 13 13 14 14 15 15 15 16 16 17 17 17 18 18 18 19 19
11 11 12 13 13 13 13 13 13 12 12 12 12 12 12 11 11 11 11 10 10 10 10 10 9 9 8 8 7 6 6 6 6 7 7 8 8 9 9 10 10 10 11 11 11 12 12 13 13 13 13 13 13 13 14 14 14 15 15 15 16 16 16 16 17 17 17 17 17
13 13 14 14 14 14 14 14 13 13 12 12 12 12 12 12 11 11 11 11 10 10 9 9 8 8 7 6 6 6 6 6 6 7 8 8 9 9 10 10 11 11 11 12 12 12 13 13 13 13 13 13 13 14 14 14 15 15 16 16 16 17 17 17 17 16 16 16 16
14 15 15 15 15 15 14 14 13 13 13 13 13 13 12 12 12 12 11 10 9 8 8 7 6 6 5 5 5 6 6 7 7 8 8 9 9 9 10 11 11 12 12 12 12 13 13 13 13 14 14 14 14 14 15 15 16 17 17 17 17 18 18 17 17 17 16 16 16
15 15 16 16 16 15 15 14 14 14 14 14 14 13 12 12 11 11 10 8 7 6 6 5 5 5 5 5 6 6 7 7 8 8 9 9 9 10 11 12 12 13 13 13 13 13 13 13 14 14 14 15 15 16 16 17 17 18 18 18 18 18 18 18 18 17 16 16 16
15 16 16 16 16 16 15 15 15 15 15 14 13 12 11 10 9 8 7 5 5 5 5 5 5 5 6 7 7 7 8 8 8 9 9 10 10 11 12 12 13 13 13 13 13 13 13 14 14 14 15 16 16 17 17 18 18 19 19 19 19 18 18 18 18 17 17 16 16
16 16 16 17 16 16 15 15 15 14 14 12 11 10 9 8 7 6 5 4 4 4 4 4 5 6 7 7 7 7 8 8 8 9 10 11 11 12 12 13 13 13 13 13 13 13 14 14 15 15 16 16 17 18 18 19 19 19 19 19 19 18 18 18 18 18 17 16 17
16 16 16 16 16 15 14 14 13 13 12 10 9 8 7 6 6 5 5 4 4 4 5 5 6 7 7 7 7 7 8 8 9 10 10 11 12 12 12 12 13 13 13 13 14 14 14 15 15 15 16 16 17 18 18 19 19 19 19 19 19 19 19 19 19 18 17 16 17
15 15 14 14 14 13 13 12 11 10 9 8 7 6 6 5 5 5 4 4 4 4 5 5 6 6 6 6 7 7 8 9 10 10 11 11 12 12 12 12 13 13 14 14 14 15 15 15 16 16 16 16 17 17 18 19 19 19 19 20 20 21 21 21 20 18 17 16 17
14 13 13 12 11 11 11 10 10 8 7 7 6 6 5 5 5 4 4 4 4 5 5 5 6 6 6 7 7 8 9 10 11 11 11 11 11 12 12 12 13 14 15 15 15 15 15 15 16 15 16 16 17 17 18 18 19 20 20 20 21 21 22 22 21 19 17 17 18
Wind_Direction
220 220 221 222 223 224 225 226 226 226 227 227 226 226 226 226 226 228 230 232 234 237 240 243 246 248 248 248 246 245 244 243 242 241 241 241 241 242 243 244 245 246 247 247 247 247 247 247 246 246 247 248 248 249 250 250 250 251 251 252 252 252 252 253 253 253 252 252 253
220 221 222 223 224 225 226 227 227 227 228 229 230 230 230 230 230 231 232 234 237 240 243 245 247 249 249 249 249 248 246 245 244 243 242 242 243 244 244 245 245 246 247 247 247 247 247 247 247 246 247 248 249 249 249 250 250 250 251 251 252 252 253 253 254 255 255 254 255
221 221 222 223 224 225 226 226 227 228 229 231 233 233 233 233 233 234 235 238 241 243 244 245 248 249 250 251 250 249 248 247 246 245 244 244 244 245 245 245 246 246 247 248 248 248 248 248 249 248 248 249 249 249 249 249 249 250 250 251 252 252 253 254 255 256 256 255 256
222 222 222 223 224 226 227 228 229 230 232 233 234 235 235 236 236 237 239 240 242 243 244 247 249 250 251 251 251 250 250 249 248 247 247 247 247 247 247 248 248 248 249 250 250 250 250 251 251 252 252 252 251 250 250 251 250 250 251 252 252 252 252 254 255 256 256 256 257
223 223 223 224 225 228 230 232 233 233 234 235 235 235 236 237 238 239 240 241 241 244 247 249 250 250 251 251 251 251 251 250 249 249 249 249 249 250 251 251 251 251 252 252 253 254 255 255 255 255 254 254 254 254 254 255 254 254 254 254 253 253 253 255 256 256 256 256 258
224 225 225 226 228 230 232 234 235 236 236 236 235 235 236 237 238 239 240 241 244 247 249 249 249 250 251 251 252 252 252 251 251 250 250 250 251 252 253 253 254 254 254 254 255 257 258 258 258 258 257 257 256 257 257 257 256 256 256 255 255 255 255 256 256 256 256 257 258
227 227 227 228 229 231 232 234 236 237 237 237 236 236 238 240 241 242 243 245 246 247 248 248 249 250 251 252 252 253 253 253 253 252 252 252 253 254 255 255 255 255 256 257 258 259 259 259 260 260 260 259 258 257 257 257 257 257 257 257 257 257 257 257 258 257 257 257 258
229 230 230 230 231 232 234 235 236 236 237 237 238 239 241 242 243 244 245 246 246 247 248 250 251 252 253 253 253 254 255 255 255 255 254 253 254 255 256 256 256 258 260 261 261 261 260 259 259 259 260 260 259 258 258 258 257 257 257 258 259 259 259 259 258 258 258 258 260
231 231 232 233 234 235 236 237 238 238 238 239 241 243 244 244 244 245 245 246 248 250 251 251 253 254 254 254 255 257 258 258 258 256 255 254 254 255 256 258 260 263 265 265 264 262 260 259 258 258 258 259 260 260 260 259 258 258 259 259 259 260 260 260 259 259 259 260 261
232 233 234 235 236 237 238 239 240 240 241 242 244 246 246 245 246 246 248 249 251 251 251 253 254 255 255 257 258 260 260 260 258 256 255 255 255 258 260 263 265 266 266 265 264 262 261 259 258 258 258 259 259 260 261 261 259 259 259 260 260 260 260 261 261 261 261 261 262
235 236 237 237 238 240 240 240 240 241 242 243 245 246 247 247 247 249 250 251 250 251 252 255 256 257 259 261 262 263 262 260 257 256 255 257 260 263 265 266 267 267 267 266 265 264 262 261 260 260 260 260 260 260 260 260 259 258 257 258 259 259 260 262 263 263 263 263 263
238 238 239 240 241 241 240 240 240 241 242 243 245 246 247 248 249 250 250 250 250 252 256 258 259 261 263 265 265 265 262 260 259 259 260 263 265 267 267 267 267 268 268 268 267 265 265 264 263 263 263 264 263 262 261 259 257 256 255 256 257 259 260 263 264 265 265 265 265
239 240 240 241 241 241 241 241 241 242 242 243 245 246 248 249 250 251 250 251 253 256 259 261 262 263 265 266 267 266 265 264 265 266 266 267 268 269 269 268 268 268 268 269 268 268 268 269 269 269 269 269 268 265 261 258 256 256 256 257 258 260 263 265 267 268 268 267 267
240 240 241 242 242 241 242 242 242 243 243 244 245 247 248 250 251 252 252 254 256 259 261 262 264 265 267 268 268 269 270 271 272 271 270 270 270 270 269 269 269 269 269 271 272 272 273 274 275 274 273 271 268 265 262 259 258 258 259 261 262 264 267 270 271 271 270 270 271
240 241 242 242 243 243 243 244 244 245 245 246 248 249 250 251 253 254 256 257 260 262 263 264 265 267 269 271 271 273 274 274 273 273 273 272 272 272 272 272 272 272 273 275 277 278 279 279 278 277 275 272 269 266 264 263 263 263 264 265 267 269 272 274 276 275 274 274 275
241 241 241 242 243 244 245 246 247 248 249 250 252 254 255 256 257 258 259 260 262 263 264 266 268 270 271 272 273 274 274 274 274 275 276 277 277 277 276 276 277 278 279 281 283 284 284 283 281 279 277 274 272 271 269 269 269 269 269 270 271 273 275 278 279 279 279 278 279
239 240 240 241 243 245 247 250 252 254 256 258 260 260 261 262 263 263 264 265 265 266 267 269 272 273 273 274 275 275 276 277 278 280 281 283 283 283 283 283 284 284 285 286 287 288 288 288 286 283 281 279 278 276 276 275 274 274 274 274 276 277 279 281 281 282 282 282 282
238 240 241 243 246 250 255 260 264 267 270 271 271 271 270 270 270 270 270 271 272 272 273 275 276 277 277 278 279 280 281 282 284 286 288 289 289 289 289 290 291 291 291 291 293 294 295 294 292 289 287 286 284 283 281 280 279 278 279 279 280 281 282 284 285 285 285 284 285
242 246 250 255 261 268 275 282 286 290 291 289 287 283 281 280 279 278 278 278 279 279 279 280 281 282 283 284 286 287 288 289 291 292 293 294 294 295 296 297 298 298 298 299 301 302 303 301 299 296 294 292 291 289 286 284 283 283 283 283 284 285 286 287 288 289 289 288 289
256 262 270 278 287 296 304 309 313 313 309 303 295 290 286 284 284 283 282 282 283 284 284 285 285 287 289 290 292 293 294 295 296 297 298 300 301 302 303 304 305 305 306 307 308 309 309 308 305 303 301 298 296 294 291 289 288 287 287 287 288 289 290 291 292 293 293 293 293
278 287 295 304 312 322 328 331 331 327 316 302 291 285 283 282 283 283 284 285 286 287 288 289 291 293 294 296 297 298 300 301 302 304 306 309 309 311 311 312 311 312 312 313 314 314 314 312 310 308 306 303 301 299 297 295 293 292 292 292 292 293 294 295 296 296 296 296 296
296 304 312 319 328 334 341 343 341 330 309 287 280 278 277 278 280 282 284 286 288 290 291 293 296 299 300 302 304 305 306 308 311 313 316 319 319 320 320 320 319 319 319 320 320 319 318 316 314 312 309 307 305 304 302 300 298 297 296 296 297 297 298 299 299 299 300 300 300
302 309 318 325 334 341 347 351 343 321 287 274 270 271 274 277 281 284 287 291 293 296 299 302 305 307 308 310 311 313 315 317 321 324 327 328 328 328 328 328 328 327 327 326 325 323 321 319 316 314 312 310 309 307 306 305 304 303 302 302 302 302 303 303 303 303 304 304 304
299 310 320 330 340 350 359 1 358 320 283 272 273 277 280 286 293 298 302 306 309 312 314 315 317 317 317 318 320 322 325 328 331 334 336 336 337 337 336 336 336 335 334 332 330 327 324 322 320 319 317 316 314 313 312 311 310 309 309 308 308 307 307 306 306 306 307 307 308
296 314 333 348 2 16 23 35 39 13 320 297 300 304 312 318 324 329 332 335 335 334 333 331 330 329 329 330 333 335 339 341 343 344 344 344 344 344 344 344 343 342 340 336 333 331 329 328 328 327 325 323 321 319 317 315 314 313 312 311 311 310 309 308 308 308 309 310 310
2 17 31 41 51 59 64 68 66 58 44 27 16 10 6 5 4 2 1 0 358 355 352 350 348 348 349 351 353 354 355 355 354 353 352 351 350 350 350 350 349 347 343 340 337 335 335 335 335 333 328 325 323 320 318 317 315 315 313 312 312 311 311 311 311 311 311 312 312
87 83 80 80 82 86 86 82 77 71 63 55 46 39 33 29 23 22 20 19 17 16 14 13 14 15 16 15 14 11 8 5 2 359 357 356 356 356 356 355 353 349 345 342 340 339 338 337 336 332 327 326 323 321 319 317 316 315 315 314 313 313 313 314 314 314 315 315 315
95 93 93 95 96 95 92 87 82 75 68 60 54 49 44 40 37 36 36 36 36 35 35 35 35 35 33 29 25 22 17 13 9 6 4 2 2 1 0 358 354 349 345 341 338 336 333 332 329 328 328 328 327 325 321 319 318 317 316 316 316 316 316 317 317 318 318 318 318
96 96 98 99 98 96 93 88 81 74 68 63 59 55 52 51 50 50 50 50 50 50 49 47 45 43 40 36 32 28 24 20 16 13 10 8 6 4 0 356 350 344 339 334 331 329 327 327 327 328 330 331 330 328 324 321 319 318 317 317 318 318 319 319 319 320 320 320 319
96 99 100 100 98 95 91 86 80 75 71 67 65 63 63 62 62 62 61 59 58 56 54 51 48 46 44 41 38 34 31 27 22 17 12 8 4 0 355 348 341 336 331 330 329 328 329 330 331 332 333 334 333 329 325 322 320 319 319 319 319 319 320 320 321 321 321 321 321
98 99 101 100 98 94 89 85 81 78 75 73 72 72 71 70 69 67 65 63 60 58 56 53 52 50 49 47 44 40 36 30 23 15 7 1 355 351 346 340 334 331 330 331 331 332 332 333 334 335 336 338 335 330 326 324 323 322 322 322 323 323 324 324 324 324 324 324 324
98 99 100 99 96 92 89 86 83 82 80 79 78 77 76 74 72 70 67 65 61 59 57 56 55 54 53 50 47 42 35 25 15 5 356 349 346 343 339 334 332 332 333 334 335 335 336 336 337 338 340 340 336 332 330 328 328 328 328 329 330 331 331 331 330 329 329 329 328
98 98 98 97 94 92 90 88 86 86 85 84 82 80 77 76 74 72 69 66 63 60 59 57 56 54 51 47 41 34 24 13 2 353 347 343 340 338 337 335 335 337 339 340 340 341 343 344 345 346 345 343 339 336 335 335 335 335 336 337 337 338 338 338 337 336 335 334 333
97 98 97 96 94 92 91 90 89 89 89 87 85 82 79 77 75 72 69 66 64 62 61 58 55 51 45 36 27 19 10 1 352 347 344 341 339 338 339 341 342 344 346 348 349 350 351 352 353 353 351 347 343 342 341 341 340 340 341 341 341 341 341 342 341 341 340 339 338
97 98 97 96 94 93 92 92 92 92 91 88 86 84 81 79 76 73 70 68 66 65 63 59 52 44 34 22 12 5 1 357 353 349 346 344 342 343 346 349 349 350 352 355 356 357 357 357 358 357 353 348 346 345 344 343 342 341 341 340 340 341 342 343 344 344 343 342 341
97 98 97 96 95 95 94 94 94 93 91 88 86 84 83 81 79 77 74 72 70 67 62 54 45 35 25 18 10 6 4 2 359 356 351 349 348 350 353 355 354 355 357 1 2 1 360 359 359 357 353 348 347 346 345 343 342 341 340 340 340 341 342 343 344 344 343 342 340
97 98 98 98 97 96 96 96 96 94 91 89 88 86 84 83 83 80 77 71 66 59 52 42 35 29 25 20 17 14 9 5 3 1 359 355 356 359 0 359 359 359 2 4 4 2 0 358 358 356 353 350 348 347 345 343 342 341 341 341 340 341 342 343 343 342 341 339 338
97 99 99 99 99 99 99 99 98 96 94 92 91 90 88 87 84 77 68 56 47 42 40 35 35 33 30 24 21 18 13 8 7 6 6 5 5 6 5 4 3 3 4 6 4 2 360 358 357 356 354 352 349 347 346 344 343 343 343 342 342 342 342 342 341 339 337 335 336
99 101 102 103 103 103 103 102 100 98 97 96 95 94 91 86 77 67 55 44 38 37 38 39 40 38 33 28 23 19 17 14 12 11 11 13 12 12 10 8 6 6 6 6 5 2 0 358 357 356 354 352 350 348 346 346 345 344 344 344 343 342 342 340 338 335 333 333 335
104 105 106 106 106 106 106 104 101 99 99 99 97 94 89 80 72 63 54 47 45 42 41 41 42 38 32 25 21 20 20 19 18 18 19 20 19 17 14 11 10 8 7 6 5 4 1 359 357 355 354 352 349 348 347 347 346 345 345 345 344 343 341 340 337 334 332 333 337
109 109 108 107 107 107 106 105 104 104 105 104 99 92 87 82 77 70 62 56 52 48 43 41 39 34 28 23 20 20 23 26 26 26 27 25 24 22 19 15 13 10 8 6 6 4 1 358 356 355 353 351 349 348 348 347 346 346 345 344 344 343 342 340 339 337 336 338 339
Height
800 801 802 803 804 804 805 806 808 808 809 810 811 812 813 813 814 815 815 816 817 817 818 818 818 819 819 820 820 820 821 821 822 822 822 822 823 823 823 824 824 824 825 825 826 826 827 827 828 828 827 827 828 828 828 828 829 829 830 830 830 831 832 832 832 833 833 833 833
799 800 801 802 803 804 805 806 807 808 808 809 810 811 811 812 813 813 814 815 815 816 816 817 817 818 818 818 818 819 819 819 820 820 820 821 821 821 822 822 823 823 823 824 824 825 825 826 826 826 826 826 826 826 826 827 827 828 828 828 829 829 830 830 831 831 832 832 832
798 799 800 801 802 803 803 804 805 806 807 808 809 809 810 811 812 812 813 813 814 814 815 815 816 816 817 817 817 818 818 818 818 818 819 819 820 820 820 821 821 822 822 823 823 823 823 824 824 824 824 824 824 824 824 825 825 826 826 827 827 828 828 828 829 830 830 831 831
797 798 799 800 801 802 802 803 804 805 806 807 808 808 809 810 811 811 812 812 813 813 814 814 814 815 815 815 816 816 816 817 817 817 818 818 818 819 819 820 820 821 822 822 822 823 823 823 824 824 823 823 823 823 823 823 824 824 825 825 826 826 827 827 828 828 829 829 829
796 797 798 799 800 801 801 802 803 804 805 806 807 808 808 809 810 810 811 811 812 812 812 813 813 813 814 814 814 815 815 816 816 816 816 817 817 818 819 820 820 821 821 821 822 822 823 823 823 823 823 823 823 823 823 823 824 824 824 824 825 825 825 825 826 827 827 827 828
795 797 798 798 799 800 801 802 803 803 804 805 806 807 807 808 808 809 809 810 810 810 811 811 812 812 813 813 813 814 814 814 815 815 815 816 816 817 818 818 819 819 820 820 820 821 822 823 823 822 822 822 822 823 823 823 823 824 824 824 824 824 824 824 825 825 825 826 826
795 796 797 798 798 799 800 801 802 803 804 804 805 805 806 807 807 807 808 808 808 809 809 810 811 811 812 812 812 813 813 813 814 814 814 815 815 816 816 817 817 818 818 819 819 820 821 821 821 821 821 821 821 822 822 822 822 823 823 823 823 823 823 823 823 823 824 824 824
794 795 796 797 798 798 799 800 801 802 803 803 803 804 804 805 805 806 806 807 807 808 808 809 809 810 810 811 811 812 812 812 813 813 813 814 814 814 815 815 816 816 817 818 818 818 818 819 819 819 819 819 820 820 820 821 821 821 822 822 822 822 822 822 822 822 822 823 823
793 794 795 796 797 798 798 799 800 801 801 802 802 803 803 804 804 805 805 806 806 807 808 808 808 809 809 810 810 810 811 811 811 812 812 812 813 813 813 813 814 814 815 815 816 816 816 816 816 817 817 818 818 819 819 819 820 820 820 821 821 821 821 821 821 821 821 821 821
793 794 795 796 796 797 798 799 799 800 800 801 801 802 803 803 803 804 804 805 806 806 807 807 808 808 808 809 809 809 810 810 810 811 811 811 811 812 812 812 813 813 813 813 813 814 814 814 814 815 815 816 817 817 817 818 818 819 819 819 820 820 820 820 820 820 820 820 820
792 793 794 795 796 796 797 798 798 799 799 800 800 801 802 802 803 803 804 804 805 805 806 806 807 807 808 808 808 808 809 809 809 810 810 810 810 811 811 811 811 811 811 812 812 813 813 813 813 813 814 814 815 815 815 816 816 817 817 818 818 818 818 818 818 818 818 818 818
792 793 793 794 795 796 796 797 798 798 798 799 799 800 801 801 802 803 803 803 804 804 805 805 806 806 807 807 807 808 808 808 808 809 809 809 809 809 809 810 810 810 811 811 812 812 812 812 813 813 813 813 813 813 813 814 814 815 815 816 816 817 817 817 817 817 817 817 817
791 792 793 793 794 795 795 796 797 797 798 798 799 799 800 800 801 802 802 803 803 803 804 805 805 806 806 806 806 807 807 807 808 808 808 808 808 808 809 809 810 810 810 810 811 811 811 812 812 812 812 812 812 812 812 813 813 813 814 814 815 815 815 815 816 816 816 816 815
791 791 792 793 793 794 795 795 796 797 797 798 798 799 799 800 801 801 802 802 803 803 803 804 804 805 805 805 806 806 806 806 807 807 807 808 808 808 808 809 809 809 810 810 810 810 811 810 810 810 810 810 810 811 811 812 812 813 813 813 814 814 814 814 814 815 815 814 814
790 791 792 792 793 794 794 795 795 796 797 797 798 798 799 799 800 800 801 801 802 803 803 803 803 804 804 805 805 805 805 806 806 806 807 807 808 808 808 808 808 809 809 809 809 810 809 809 809 809 809 809 810 810 810 811 811 812 812 813 813 813 813 813 813 813 813 813 813
790 791 791 792 793 793 794 794 795 796 796 797 797 798 798 799 799 800 800 801 801 802 802 803 803 803 804 804 804 805 805 805 806 806 806 807 807 807 808 808 808 808 808 809 809 809 808 808 808 808 808 809 809 809 810 810 810 811 811 811 812 812 812 812 812 813 812 812 812
790 790 791 792 793 793 794 794 795 796 796 797 797 798 798 798 799 799 800 800 801 801 802 802 803 803 803 804 804 804 805 805 805 806 806 806 807 807 807 807 807 808 808 808 808 808 808 808 808 808 808 808 809 809 809 809 809 810 810 810 811 811 811 811 811 811 811 811 811
790 790 791 792 793 793 794 794 795 795 796 796 797 797 798 798 798 799 799 800 800 801 801 802 802 803 803 803 804 804 804 805 805 805 806 806 806 806 806 807 807 807 807 807 808 808 808 808 808 808 808 808 808 808 808 809 809 809 809 809 810 810 810 810 810 810 810 810 810
790 791 791 792 793 793 793 794 795 795 796 796 797 797 798 798 798 799 799 800 800 801 801 802 802 803 803 803 803 804 804 804 805 805 805 805 806 806 806 806 806 807 807 807 807 807 807 807 807 808 808 808 808 808 808 808 808 808 808 809 809 809 809 809 809 809 809 809 808
790 790 791 792 792 793 793 794 794 795 795 796 796 797 797 798 798 799 799 800 800 800 801 801 802 802 803 803 803 803 804 804 804 804 805 805 805 805 806 806 806 806 806 807 807 807 807 807 807 807 807 807 807 807 808 808 808 808 808 808 808 808 808 808 808 808 808 808 807
790 790 791 791 792 793 793 793 794 795 795 796 796 797 797 798 798 798 799 799 800 800 801 801 802 802 802 803 803 803 803 803 804 804 804 805 805 805 805 806 806 806 806 806 806 806 806 806 807 807 807 807 807 807 807 807 807 807 807 807 807 807 807 807 807 807 806 806 806
790 790 791 791 792 792 793 793 794 794 795 795 796 797 797 798 798 798 799 799 800 800 800 801 801 802 802 802 803 803 803 803 803 804 804 804 805 805 805 805 806 806 806 806 806 806 806 806 806 806 806 806 806 806 807 807 807 807 807 806 806 806 806 806 806 805 805 805 804
790 790 791 791 792 792 793 793 794 794 795 795 796 796 797 797 798 798 798 799 799 800 800 800 801 801 802 802 802 803 803 803 803 804 804 804 804 805 805 805 805 806 806 806 806 806 806 806 806 806 806 806 806 806 806 806 806 806 806 805 805 805 804 804 804 804 803 803 803
790 790 791 791 792 792 793 793 794 794 795 795 796 796 797 797 798 798 798 799 799 800 800 800 801 801 801 802 802 803 803 803 803 804 804 804 805 805 805 805 805 806 806 806 806 806 806 806 806 806 806 806 805 805 805 805 805 805 804 804 803 803 803 803 802 802 802 801 801
790 790 791 791 792 792 793 793 794 794 795 795 796 796 797 797 798 798 798 799 799 800 800 800 801 801 801 802 802 803 803 803 803 804 804 804 805 805 805 805 805 806 806 806 806 806 805 805 805 805 805 805 805 805 804 804 804 804 803 803 802 802 801 801 801 800 800 800 799
790 790 791 791 792 792 793 793 794 794 795 795 796 796 797 797 798 798 798 799 799 800 800 800 801 801 802 802 802 803 803 803 804 804 804 804 805 805 805 805 806 806 806 806 805 805 805 805 805 805 805 804 804 804 804 803 803 803 803 802 802 801 800 799 799 799 798 798 798
790 790 791 791 792 793 793 793 794 794 795 796 796 797 797 798 798 798 799 799 799 800 800 801 801 802 802 802 803 803 803 803 804 804 804 805 805 805 805 805 805 805 805 805 805 805 805 805 805 805 805 804 804 803 803 803 802 802 802 801 801 800 799 798 798 797 797 797 796
790 791 791 792 792 793 793 794 794 795 795 796 796 797 797 798 798 798 799 799 800 800 801 801 802 802 802 803 803 803 803 804 804 804 805 805 805 805 805 805 805 805 805 805 805 804 804 804 804 804 804 804 803 803 802 802 802 801 801 800 800 799 798 798 797 796 796 795 794
791 791 792 792 793 793 794 794 795 795 796 796 797 797 798 798 798 799 799 800 800 801 801 802 802 802 803 803 803 804 804 804 804 804 805 805 805 805 804 804 804 804 804 804 804 804 804 803 803 803 803 803 803 802 802 801 801 800 800 799 799 798 798 797 796 796 795 794 793
791 792 792 793 793 793 794 795 795 796 796 797 797 798 798 798 799 799 800 800 801 801 802 802 803 803 803 803 804 804 804 804 804 804 804 804 804 804 804 804 804 804 804 804 803 803 803 803 803 803 803 802 802 802 801 801 800 800 799 798 798 798 797 796 795 795 794 793 792
792 792 793 793 793 794 795 795 796 796 797 797 798 798 799 799 799 800 801 801 802 802 803 803 803 803 803 804 804 804 804 804 804 804 804 804 804 804 804 804 803 803 803 803 803 803 803 803 803 802 802 802 801 801 800 800 799 799 798 798 797 797 796 795 794 794 793 792 791
793 793 793 794 794 795 795 796 797 797 798 798 798 799 799 800 800 801 801 802 802 803 803 803 803 803 803 804 804 804 804 804 804 804 804 804 804 804 804 803 803 803 803 803 803 803 803 802 802 802 802 801 801 800 800 799 799 798 798 797 797 796 795 794 794 793 792 791 790
793 794 794 794 795 796 796 797 797 798 798 799 799 800 800 801 801 802 802 803 803 803 803 803 803 803 803 804 804 804 804 804 804 804 804 804 804 804 803 803 803 803 803 803 803 803 803 802 802 802 801 801 800 799 799 798 798 798 797 796 796 795 794 794 793 792 791 790 789
794 794 795 795 796 796 797 798 798 799 799 799 800 800 801 801 802 802 803 803 803 803 803 803 803 804 804 804 804 804 804 804 804 804 804 804 804 804 803 803 803 803 803 803 803 803 802 802 802 801 801 800 799 799 798 798 797 797 796 796 795 794 794 793 792 791 791 790 789
795 795 796 796 797 797 798 798 799 799 800 800 801 801 802 802 802 803 803 803 804 804 804 804 804 804 804 804 804 804 804 804 804 804 804 804 804 804 803 803 803 803 803 803 803 802 802 802 802 801 800 800 799 798 798 797 797 796 795 795 794 793 793 792 792 791 790 789 788
796 796 797 797 798 798 799 799 800 800 800 801 801 802 802 803 803 803 804 804 804 804 804 804 804 804 805 805 805 805 805 805 804 804 804 804 804 803 803 803 803 803 803 803 803 802 802 802 801 801 800 799 798 798 797 796 796 795 794 794 793 793 792 791 791 790 789 788 788
797 797 798 798 798 799 800 800 800 801 801 802 802 802 803 803 803 804 804 804 804 804 804 805 805 805 805 805 805 805 805 805 805 804 804 804 804 803 803 803 803 803 803 802 802 802 802 801 801 800 799 798 798 797 796 796 795 794 794 793 793 792 791 791 790 789 788 788 787
798 798 798 799 799 800 800 801 801 801 802 802 803 803 803 804 804 804 804 805 805 805 805 805 805 805 805 805 805 805 805 805 805 805 804 804 804 804 803 803 803 803 802 802 802 802 801 801 800 800 799 798 797 796 796 795 794 794 793 793 792 791 791 790 789 788 788 787 786
799 799 799 800 800 800 801 801 802 802 803 803 803 804 804 804 804 805 805 805 805 805 805 805 805 806 806 806 806 806 805 805 805 805 805 804 804 804 804 803 803 802 802 802 802 801 801 800 800 799 798 798 797 796 795 794 794 793 793 792 791 790 790 789 788 788 787 786 786
800 800 800 800 801 801 802 802 803 803 803 804 804 804 805 805 805 805 806 806 806 806 806 806 806 806 806 806 806 806 806 805 805 805 805 805 804 804 804 803 803 802 802 802 801 801 800 800 799 799 798 798 797 796 795 794 793 793 792 791 790 789 789 788 788 787 786 785 785
800 801 801 801 802 802 803 803 803 804 804 804 805 805 805 805 806 806 806 806 806 806 806 806 806 806 806 806 806 806 806 806 805 805 805 805 804 804 804 803 803 802 802 801 801 801 800 800 799 799 798 797 796 795 795 794 793 792 791 790 790 789 788 787 787 786 786 785 784